Location: Ajisawe
(8.4333°N, 4.3833°E)
Time: 22:36:40
(UTC+00:00)

S-56A Canister/Altair - Pass Details

Date: 21 April 2021
Orbit: 631 x 2501 km, 38.9° (Epoch: 14 May)

Event Time Altitude Azimuth Distance (km) Brightness Sun altitude
Rises 18:30:12 0° 221° (SW) 6,164 12.5 -10.1°
Reaches altitude 10° 18:34:27 10° 218° (SW) 5,087 12.0 -11.1°
Maximum altitude 18:48:40 64° 139° (SE) 2,207 9.6 -14.5°
Drops below altitude 10° 18:58:50 10° 61° (ENE) 3,758 10.6 -16.9°
Enters shadow 18:59:49 - 59° (ENE) 4,033 10.8 -17.2°
